NOAA NWS Hourly Roundups by Site

Regional Weather Roundup for Bismarck, ND

To Select Another Site Choose from List

Select Site:  

000
ASUS43 KBIS 192110
RWRBIS

NWR BROADCAST TEXT
NATIONAL WEATHER SERVICE BISMARCK ND
400 PM CDT FRI OCT 19 2018

NOTE: "FAIR" INDICATES FEW OR NO CLOUDS BELOW 12,000 FEET WITH NO
SIGNIFICANT WEATHER AND/OR OBSTRUCTIONS TO VISIBILITY.


CITY           SKY/WX    TMP DP  RH WIND       PRES   REMARKS
WILLISTON      SUNNY     59  25  27 NW23G31   30.19F
MINOT          MOSUNNY   57  29  34 NW25G41   30.09S
MINOT AFB      MOSUNNY   56  28  34 NW31G38   30.06S
BISMARCK       SUNNY     59  30  33 NW22G39   30.12F
DICKINSON      SUNNY     58  22  24 NW25G35   30.17F
GARRISON         N/A     57  28  33 MISG      30.11S
HETTINGER ARPT SUNNY     58  23  26 NW21G31   30.20F
JAMESTOWN      SUNNY     58  31  35 NW24G41   30.00S
CARRINGTON     FAIR      57  30  35 NW29G39   30.03S
HAZEN          FAIR      57  30  35 NW28      30.15F
LINTON           N/A     59  30  33 NW28G33   30.12S
MANDAN         FAIR      55  32  41 NW20G37   30.12F
OAKES          FAIR      59  32  36 NW25G37   30.01S
RUGBY          FAIR      55  25  30 NW31G38   30.01F
STANLEY        FAIR      55  27  33 NW21G31   30.13F
TIOGA          FAIR      55  25  30 NW28G36   30.16F
WATFORD CITY   FAIR      57  27  30 NW21G39   30.17F
$$

CITY           SKY/WX    TMP DP  RH WIND       PRES   REMARKS
GRAND FORKS    FAIR      57  34  41 NW22G31   29.92S
GRAND FORKS AF FAIR      58  34  40 NW14G25   29.93S
DEVILS LAKE    FAIR      55  29  36 NW28G33   29.97F
FARGO          FAIR      59  34  39 NW21G37   29.93R
CANDO          FAIR      55 N/A N/A NW28G33   30.01S
CAVALIER       FAIR      54  34  47 NW13G20   29.92S
GRAFTON        FAIR      55  36  47 N14G22    29.94S
GWINNER          N/A     61  30  31 NW21G29   29.99S
LANGDON        FAIR      54  32  43 NW22G33   29.95S
ROLLA          FAIR      52  27  37 NW22G37   30.00S
WALHALLA         N/A     55  55 100 NW16G25   29.92F
$$

CITY           SKY/WX    TMP DP  RH WIND       PRES   REMARKS
ABERDEEN       SUNNY     62  30  29 NW25G37   30.05S
MOBRIDGE       SUNNY     63  30  28 NW18G31   30.10F
BUFFALO          N/A     60  25  26 NW22G33   30.20F
RAPID CITY     SUNNY     63  27  25 NW23G29   30.25F
GLASGOW        SUNNY     61  28  28 NW16G22   30.26F
SIDNEY           N/A     60  24  25 NW25G31   30.21F
WOLF POINT     SUNNY     62  26  25 NW21G31   30.25F
GLENDIVE       SUNNY     59  25  27 NW14      30.25F
MILES CITY     SUNNY     63  25  23 NW9G22    30.27F
BAKER          SUNNY     58  25  28 NW17      30.25F
$$

CITY           SKY/WX    TMP DP  RH WIND       PRES   REMARKS
BILLINGS       MOSUNNY   62  30  29 VRB3      30.31F
GREAT FALLS    SUNNY     62  31  31 W3        30.30F
REGINA         MOSUNNY   54  27  35 NW28G37   30.16F
ESTEVAN        MOSUNNY   54  28  37 NW25G40   30.12F
$$



 

View Past Reports for Bismarck, ND.

Products Courtesy of NOAA-NWS
NWS Information Parsing Script by Ken True at Saratoga Weather - Script by SE Lincoln Weather.